GPS BIIF-11 (PRN 10)

Last updated on Jan. 20, 2020, 4:32 a.m. UTC

1 41019U 15062A   20019.44144614 -.00000044  00000-0  00000+0 0  9997
2 41019  55.2697 122.6702 0054190 207.7152 151.9885  2.00564474 30882
UTC
Height (km)
Latitude
Longitude
Inclination
Orbital Period
UTC large
Height (km)
Speed (km/s)
/
Latitude / Longitude
Inclination (degrees)
Orbital Period (minutes)
Azimuth
Elevation
Range (km)
Doppler Factor
iOS Compass Heading
iOS Angle

Next 30 passes for location: Hong Kong

Rise time Rise Azimuth (degrees) Set time Set Azimuth (degrees) Duration Max altitude (degrees)

No matching passes for this satellites